This is the latest recevied weather packets stored in our database for station/object N4DBJ. If no packets are shown the sender has not sent any weather packets the latest 10 day(s).
| Time | Temp. | Humidity | Pressure | Rain* | Wind** | Luminosity | Snow |
|---|---|---|---|---|---|---|---|
| 1777672148 | 17.22° C | 42% | 1011.8 hPa | 0 mm | - | 286 W/m² | - |
| 1777671843 | 18.33° C | 38% | 1011.8 hPa | 0 mm | - | 165 W/m² | - |
| 1777671539 | 18.33° C | 41% | 1011.8 hPa | 0 mm | - | 293 W/m² | - |
| 1777671236 | 18.89° C | 37% | 1011.9 hPa | 0 mm | - | 194 W/m² | - |
| 1777670931 | 19.44° C | 44% | 1011.7 hPa | 0 mm | - | 354 W/m² | - |
| 1777670629 | 18.89° C | 45% | 1011.9 hPa | 0 mm | - | 376 W/m² | - |
| 1777670326 | 18.89° C | 45% | 1011.8 hPa | 0 mm | - | 409 W/m² | - |
| 1777670023 | 18.33° C | 42% | 1011.6 hPa | 0 mm | - | 439 W/m² | - |
| 1777669720 | 17.78° C | 45% | 1012 hPa | 0 mm | - | 263 W/m² | - |
| 1777669417 | 17.78° C | 38% | 1012.3 hPa | 0 mm | - | 300 W/m² | - |
| 1777669113 | 17.78° C | 38% | 1012.4 hPa | 0 mm | - | 418 W/m² | - |
| 1777668810 | 17.78° C | 38% | 1012.3 hPa | 0 mm | - | 450 W/m² | - |
| 1777668507 | 18.33° C | 37% | 1012.5 hPa | 0 mm | - | 341 W/m² | - |
| 1777668204 | 18.89° C | 42% | 1012.3 hPa | 0 mm | - | 459 W/m² | - |
| 1777667900 | 18.89° C | 41% | 1012.6 hPa | 0 mm | - | 432 W/m² | - |
| 1777667598 | 18.33° C | 44% | 1012.7 hPa | 0 mm | - | 347 W/m² | - |
| 1777667295 | 18.33° C | 40% | 1012.6 hPa | 0 mm | - | 279 W/m² | - |
| 1777666991 | 18.33° C | 38% | 1012.6 hPa | 0 mm | - | 517 W/m² | - |
| 1777666688 | 18.89° C | 44% | 1012.8 hPa | 0 mm | - | 423 W/m² | - |
| 1777666385 | 19.44° C | 43% | 1012.8 hPa | 0 mm | - | 406 W/m² | - |
| 1777666081 | 18.89° C | 42% | 1013 hPa | 0 mm | - | 605 W/m² | - |
| 1777665778 | 18.89° C | 43% | 1013.1 hPa | 0 mm | - | 428 W/m² | - |
| 1777665476 | 18.89° C | 41% | 1013 hPa | 0 mm | - | 438 W/m² | - |
| 1777665172 | 18.89° C | 43% | 1013.1 hPa | 0 mm | - | 419 W/m² | - |
| 1777664868 | 18.89° C | 50% | 1013.2 hPa | 0 mm | - | 577 W/m² | - |
* Rain latest hour (hover to see other rain measurements)
** Current wind speed in m/s (hover to see current wind gust speed)